SV1BYK-4 Weather Reports


Display with metric or nautical units.
time (UTC)temp
F
wind
direction
speed
MPH
gust
MPH
rain 1hr
in
rain 24hr
in
rain mn
in
humidity
%
barometer
mb
20260503005737 51 304 4.0 20.0 0.00 0.04 0.04 62 1017.1
20260503004837 51 303 3.0 17.0 0.00 0.04 0.04 63 1016.9
20260503003937 49 320 2.0 13.0 0.00 0.04 0.04 67 1016.8
20260503003037 50 331 4.0 25.0 0.00 0.04 0.04 67 1016.9
20260503002137 50 336 4.0 16.0 0.00 0.04 0.04 68 1017.1
20260503000337 48 315 4.0 11.0 0.00 0.04 0.04 74 1017.3
20260502234537 47 311 6.0 20.0 0.00 0.04 0.04 76 1017.6
20260502233637 48 314 14.0 30.0 0.04 0.04 0.04 75 1017.5
20260502230937 49 319 8.0 23.0 0.04 0.04 0.04 71 1017.6
20260502230037 49 315 9.0 17.0 0.04 0.04 0.04 72 1017.8
20260502225137 49 309 3.0 16.0 0.04 0.04 0.04 73 1017.8
20260502223337 51 317 2.0 11.0 0.00 0.00 0.00 66 1018.2
20260502222437 51 335 1.0 7.0 0.00 0.00 0.00 66 1017.9
20260502221537 51 343 2.0 23.0 0.00 0.00 0.00 63 1018.0
20260502220637 53 315 2.0 13.0 0.00 0.00 0.00 54 1018.0
20260502215737 53 314 6.0 16.0 0.00 0.00 0.00 54 1017.9
20260502214837 53 332 2.0 17.0 0.00 0.00 0.00 54 1017.9
20260502213937 53 315 3.0 13.0 0.00 0.00 0.00 53 1018.0
20260502213037 52 311 7.0 15.0 0.00 0.00 0.00 53 1017.8
20260502212136 52 309 4.0 14.0 0.00 0.00 0.00 53 1017.8
20260502211237 53 293 8.0 14.0 0.00 0.00 0.00 52 1017.8
20260502210337 52 295 4.0 11.0 0.00 0.00 0.00 52 1017.8
20260502205436 52 295 6.0 11.0 0.00 0.00 0.00 51 1017.9
20260502204537 52 293 4.0 13.0 0.00 0.00 0.00 50 1017.9
20260502203636 53 301 7.0 14.0 0.00 0.00 0.00 50 1018.0
20260502201837 53 305 4.0 11.0 0.00 0.00 0.00 49 1018.1
20260502200937 53 316 4.0 13.0 0.00 0.00 0.00 48 1018.1
20260502200037 53 302 8.0 13.0 0.00 0.00 0.00 46 1018.1
20260502194237 54 318 2.0 13.0 0.00 0.00 0.00 45 1018.0
20260502193337 54 311 2.0 8.0 0.00 0.00 0.00 45 1018.0
20260502191537 54 311 4.0 14.0 0.00 0.00 0.00 44 1018.0
20260502184837 54 318 4.0 14.0 0.00 0.00 0.00 43 1017.8
20260502183937 54 317 2.0 14.0 0.00 0.00 0.00 43 1017.8
20260502181237 54 314 6.0 11.0 0.00 0.00 0.00 42 1017.5
20260502180337 54 328 4.0 8.0 0.00 0.00 0.00 42 1017.5
20260502164236 57 346 2.0 13.0 0.00 0.00 0.00 38 1017.3
20260502163337 57 322 2.0 13.0 0.00 0.00 0.00 38 1017.2
20260502162436 56 339 2.0 13.0 0.00 0.00 0.00 40 1017.2
20260502161536 56 337 2.0 14.0 0.00 0.00 0.00 39 1017.3
20260502160636 59 306 2.0 15.0 0.00 0.00 0.00 36 1017.4
20260502152137 56 333 11.0 23.0 0.00 0.00 0.00 39 1017.5
20260502151236 57 332 3.0 18.0 0.00 0.00 0.00 38 1017.6
20260502150337 59 298 3.0 17.0 0.00 0.00 0.00 36 1017.7
20260502130637 57 290 2.0 25.0 0.00 0.00 0.00 38 1017.8
20260502123036 58 277 2.0 13.0 0.00 0.00 0.00 40 1017.8
20260502122137 58 242 4.0 11.0 0.00 0.00 0.00 40 1017.7
20260502121237 59 252 4.0 14.0 0.00 0.00 0.00 38 1017.5
20260502120336 59 278 4.0 14.0 0.00 0.00 0.00 39 1017.7
20260502115437 61 270 3.0 7.0 0.00 0.00 0.00 36 1017.8
20260502114536 59 260 4.0 14.0 0.00 0.00 0.00 42 1017.7
20260502113636 59 272 3.0 11.0 0.00 0.00 0.00 42 1017.7
20260502112736 59 294 2.0 13.0 0.00 0.00 0.00 43 1017.8
20260502110936 60 260 3.0 9.0 0.00 0.00 0.00 44 1017.8
20260502110037 60 230 3.0 8.0 0.00 0.00 0.00 45 1017.8
20260502105136 58 240 4.0 11.0 0.00 0.00 0.00 47 1018.0
20260502104237 58 245 4.0 11.0 0.00 0.00 0.00 47 1017.9
20260502103336 60 239 3.0 9.0 0.00 0.00 0.00 44 1017.9
20260502102436 59 265 3.0 15.0 0.00 0.00 0.00 45 1018.0
20260502101537 59 262 3.0 15.0 0.00 0.00 0.00 48 1018.1
20260502100636 59 207 2.0 9.0 0.00 0.00 0.00 50 1018.2
20260502091237 57 233 4.0 11.0 0.00 0.00 0.00 50 1018.0
20260502090336 59 262 3.0 14.0 0.00 0.00 0.00 48 1017.9
20260502071536 56 270 3.0 20.0 0.00 0.00 0.00 51 1017.7
20260502070636 57 211 5.0 20.0 0.00 0.00 0.00 49 1017.3
20260502065736 57 251 3.0 11.0 0.00 0.00 0.00 49 1017.5
20260502063936 56 233 3.0 11.0 0.00 0.00 0.00 50 1017.1
20260502063036 56 257 4.0 11.0 0.00 0.00 0.00 52 1017.0
20260502062136 55 246 4.0 9.0 0.00 0.00 0.00 53 1016.7
20260502061236 55 232 4.0 11.0 0.00 0.00 0.00 54 1016.9
20260502060336 56 249 3.0 9.0 0.00 0.00 0.00 53 1016.8
20260502053636 53 228 3.0 8.0 0.00 0.00 0.00 59 1016.9
20260502052736 53 205 4.0 8.0 0.00 0.00 0.00 59 1016.9
20260502050936 53 227 2.0 9.0 0.00 0.00 0.00 61 1016.9
20260502050036 53 240 3.0 11.0 0.00 0.00 0.00 61 1017.1
20260502045136 53 233 4.0 8.0 0.00 0.00 0.00 63 1016.9
20260502044236 53 240 2.0 8.0 0.00 0.00 0.00 63 1016.9
20260502043336 53 233 3.0 8.0 0.00 0.00 0.00 64 1016.8
20260502042436 52 238 4.0 7.0 0.00 0.00 0.00 65 1016.7
20260502041536 52 235 3.0 7.0 0.00 0.00 0.00 67 1016.7
20260502040636 52 223 3.0 6.0 0.00 0.00 0.00 68 1016.8
20260502034836 52 229 2.0 8.0 0.00 0.00 0.00 69 1016.9
20260502033036 52 230 2.0 7.0 0.00 0.00 0.00 72 1016.7
20260502032136 52 216 3.0 8.0 0.00 0.00 0.00 71 1016.5
20260502030336 53 242 2.0 7.0 0.00 0.00 0.00 66 1016.3
20260502025436 53 224 2.0 4.0 0.00 0.00 0.00 66 1016.3
20260502022736 53 234 2.0 6.0 0.00 0.00 0.00 65 1016.4
20260502021836 53 242 2.0 4.0 0.00 0.00 0.00 65 1016.4
20260502020936 53 254 3.0 13.0 0.00 0.00 0.00 65 1016.4
20260502020036 53 230 2.0 7.0 0.00 0.00 0.00 65 1016.5
20260502014236 53 219 2.0 6.0 0.00 0.00 0.00 66 1016.4
20260502013336 53 241 2.0 6.0 0.00 0.00 0.00 66 1016.5
20260502011536 53 195 2.0 4.0 0.00 0.00 0.00 66 1016.3
20260502010636 53 239 2.0 4.0 0.00 0.00 0.00 66 1016.4